This is the latest recevied weather packets stored in our database for station/object N4QEP-13. If no packets are shown the sender has not sent any weather packets the latest 10 day(s).
| Time | Temp. | Humidity | Pressure | Rain* | Wind** | Luminosity | Snow |
|---|---|---|---|---|---|---|---|
| 1777799745 | 7.22° C | 76% | 1020.4 hPa | 0 mm | - | - | - |
| 1777798844 | 7.22° C | 73% | 1020.3 hPa | 0 mm | - | - | - |
| 1777797904 | 7.78° C | 70% | 1020.3 hPa | 0 mm | - | - | - |
| 1777797001 | 8.33° C | 68% | 1020.2 hPa | 0 mm | - | - | - |
| 1777796128 | 9.44° C | 68% | 1020.1 hPa | 0 mm | - | - | - |
| 1777795229 | 9.44° C | 72% | 1019.7 hPa | 0 mm | - | - | - |
| 1777794334 | 9.44° C | 72% | 1019.8 hPa | 0 mm | - | - | - |
| 1777793423 | 9.44° C | 72% | 1019.8 hPa | 0 mm | - | - | - |
| 1777792522 | 9.44° C | 73% | 1019.8 hPa | 0 mm | - | - | - |
| 1777791636 | 9.44° C | 72% | 1019.7 hPa | 0 mm | - | - | - |
| 1777790718 | 10° C | 72% | 1019.7 hPa | 0 mm | - | - | - |
| 1777789816 | 10° C | 74% | 1019.6 hPa | 0 mm | - | - | - |
| 1777788915 | 9.44° C | 73% | 1019.6 hPa | 0 mm | - | - | - |
| 1777788026 | 9.44° C | 70% | 1019.6 hPa | 0 mm | - | - | - |
| 1777787110 | 9.44° C | 68% | 1019.5 hPa | 0 mm | - | - | - |
| 1777786211 | 9.44° C | 69% | 1019.5 hPa | 0 mm | - | - | - |
| 1777785309 | 9.44° C | 68% | 1019.4 hPa | 0 mm | - | - | - |
| 1777784407 | 10° C | 67% | 1019.3 hPa | 0 mm | - | - | - |
| 1777783540 | 10.56° C | 66% | 1019.2 hPa | 0 mm | - | - | - |
| 1777782631 | 10.56° C | 66% | 1019 hPa | 0 mm | - | - | - |
| 1777781760 | 10.56° C | 67% | 1018.9 hPa | 0 mm | - | - | - |
| 1777780858 | 10° C | 67% | 1018.8 hPa | 0 mm | - | - | - |
| 1777779970 | 10.56° C | 64% | 1018.7 hPa | 0 mm | - | - | - |
| 1777779056 | 11.67° C | 65% | 1018.6 hPa | 0 mm | - | - | - |
| 1777778152 | 11.67° C | 63% | 1018.5 hPa | 0 mm | - | - | - |
* Rain latest hour (hover to see other rain measurements)
** Current wind speed in m/s (hover to see current wind gust speed)